This is the latest recevied weather packets stored in our database for station/object PY5KT-13. If no packets are shown the sender has not sent any weather packets the latest 10 day(s).
| Time | Temp. | Humidity | Pressure | Rain* | Wind** | Luminosity | Snow |
|---|---|---|---|---|---|---|---|
| 1778261233 | 16.67° C | 99% | 1013.1 hPa | 2.03 mm | - | 27 W/m² | - |
| 1778260932 | 16.67° C | 99% | 1013.1 hPa | 2.03 mm | - | 41 W/m² | - |
| 1778260630 | 16.67° C | 99% | 1013.1 hPa | 2.29 mm | - | 31 W/m² | - |
| 1778260328 | 16.67° C | 99% | 1013.1 hPa | 2.29 mm | - | 32 W/m² | - |
| 1778260026 | 16.67° C | 99% | 1013.3 hPa | 2.79 mm | - | 32 W/m² | - |
| 1778259725 | 16.11° C | 99% | 1013.5 hPa | 2.79 mm | - | 47 W/m² | - |
| 1778259423 | 16.67° C | 99% | 1013.7 hPa | 3.05 mm | - | 51 W/m² | - |
| 1778259122 | 16.11° C | 99% | 1013.9 hPa | 2.79 mm | - | 43 W/m² | - |
| 1778258820 | 16.11° C | 99% | 1013.9 hPa | 2.54 mm | - | 25 W/m² | - |
| 1778258518 | 16.11° C | 99% | 1013.8 hPa | 2.29 mm | - | 19 W/m² | - |
| 1778258216 | 16.67° C | 99% | 1014 hPa | 2.03 mm | - | 17 W/m² | - |
| 1778257914 | 16.67° C | 99% | 1014.1 hPa | 1.78 mm | - | 23 W/m² | - |
| 1778257612 | 16.67° C | 99% | 1014.1 hPa | 1.78 mm | - | 30 W/m² | - |
| 1778257310 | 16.67° C | 99% | 1014.2 hPa | 1.52 mm | - | 33 W/m² | - |
| 1778257008 | 16.67° C | 99% | 1014.1 hPa | 1.27 mm | - | 36 W/m² | - |
| 1778256707 | 16.67° C | 99% | 1014 hPa | 1.02 mm | - | 29 W/m² | - |
| 1778256404 | 16.67° C | 99% | 1013.9 hPa | 0.76 mm | - | 26 W/m² | - |
| 1778256102 | 17.22° C | 99% | 1013.9 hPa | 0.51 mm | - | 24 W/m² | - |
| 1778255801 | 17.22° C | 99% | 1013.9 hPa | 0.25 mm | - | 26 W/m² | - |
| 1778255499 | 17.78° C | 99% | 1013.9 hPa | 0.25 mm | - | 26 W/m² | - |
| 1778255197 | 17.78° C | 99% | 1013.9 hPa | 0.25 mm | - | 29 W/m² | - |
| 1778254895 | 17.78° C | 99% | 1013.9 hPa | 0.25 mm | - | 34 W/m² | - |
| 1778254594 | 17.78° C | 99% | 1013.8 hPa | 0.25 mm | - | 35 W/m² | - |
| 1778254292 | 17.78° C | 99% | 1013.7 hPa | 0.25 mm | - | 34 W/m² | - |
| 1778253990 | 17.78° C | 99% | 1013.6 hPa | 0 mm | - | 43 W/m² | - |
* Rain latest hour (hover to see other rain measurements)
** Current wind speed in m/s (hover to see current wind gust speed)